FW2288 Weather Reports


time (UTC)temp
C
wind
direction
speed
KPH
gust
KPH
rain 1hr
cm
rain 24hr
cm
rain mn
cm
humidity
%
barometer
mb
20260510184047 22 234 6.4 25.7 0.00 0.00 0.00 44 1015.0
20260510183547 22 328 9.7 25.7 0.00 0.00 0.00 41 1015.0
20260510183059 22 224 6.4 19.3 0.00 0.00 0.00 45 1015.0
20260510182547 22 228 11.3 20.9 0.00 0.00 0.00 45 1014.9
20260510182050 21 359 4.8 20.9 0.00 0.00 0.00 43 1015.1
20260510181557 21 296 8.0 19.3 0.00 0.00 0.00 48 1015.1
20260510181046 21 318 8.0 19.3 0.00 0.00 0.00 44 1015.2
20260510180547 21 347 9.7 19.3 0.00 0.00 0.00 43 1015.2
20260510180058 22 323 8.0 20.9 0.00 0.00 0.00 45 1015.3
20260510175549 22 271 12.9 29.0 0.00 0.00 0.00 43 1015.5
20260510175048 22 6 16.1 30.6 0.00 0.00 0.00 45 1015.4
20260510174556 22 338 16.1 30.6 0.00 0.00 0.00 45 1015.3
20260510174050 22 356 12.9 30.6 0.00 0.00 0.00 43 1015.5
20260510173547 22 324 14.5 30.6 0.00 0.00 0.00 42 1015.5
20260510173104 22 350 12.9 30.6 0.00 0.00 0.00 44 1015.4
20260510172547 22 347 14.5 25.7 0.00 0.00 0.00 45 1015.5
20260510172047 21 313 12.9 25.7 0.00 0.00 0.00 41 1015.4
20260510171554 21 338 14.5 24.1 0.00 0.00 0.00 41 1015.6
20260510171047 21 282 9.7 24.1 0.00 0.00 0.00 43 1015.6
20260510170547 21 302 8.0 25.7 0.00 0.00 0.00 43 1015.8
20260510170056 21 333 14.5 25.7 0.00 0.00 0.00 41 1015.8
20260510165549 21 356 9.7 25.7 0.00 0.00 0.00 43 1015.8
20260510165049 21 330 14.5 33.8 0.00 0.00 0.00 46 1015.8
20260510164553 21 335 16.1 33.8 0.00 0.00 0.00 41 1015.6
20260510164048 21 333 17.7 32.2 0.00 0.00 0.00 40 1015.7
20260510163549 21 329 22.5 32.2 0.00 0.00 0.00 42 1015.6
20260510163056 21 312 14.5 27.4 0.00 0.00 0.00 43 1015.4
20260510162549 21 348 12.9 27.4 0.00 0.00 0.00 46 1015.5
20260510162048 21 336 17.7 29.0 0.00 0.00 0.00 46 1015.5
20260510161605 21 335 12.9 29.0 0.00 0.00 0.00 47 1015.6
20260510161047 21 277 17.7 25.7 0.00 0.00 0.00 46 1015.6
20260510160549 20 302 12.9 22.5 0.00 0.00 0.00 44 1015.7
20260510160132 20 292 12.9 27.4 0.00 0.00 0.00 46 1015.5
20260510155546 20 293 17.7 33.8 0.00 0.00 0.00 45 1015.5
20260510155047 20 323 14.5 33.8 0.00 0.00 0.00 45 1015.4
20260510154605 21 350 17.7 29.0 0.00 0.00 0.00 49 1015.4
20260510154048 20 354 16.1 29.0 0.00 0.00 0.00 48 1015.5
20260510153547 20 342 4.8 22.5 0.00 0.00 0.00 50 1015.6
20260510153058 20 323 11.3 22.5 0.00 0.00 0.00 48 1015.5
20260510152549 20 343 11.3 25.7 0.00 0.00 0.00 53 1015.4
20260510152049 19 319 11.3 25.7 0.00 0.00 0.00 52 1015.4
20260510151558 19 292 8.0 16.1 0.00 0.00 0.00 53 1015.4
20260510151050 19 250 8.0 16.1 0.00 0.00 0.00 55 1015.6
20260510150550 19 333 6.4 17.7 0.00 0.00 0.00 54 1015.6
20260510150055 19 330 6.4 17.7 0.00 0.00 0.00 56 1015.7
20260510145551 18 335 11.3 17.7 0.00 0.00 0.00 56 1015.7
20260510145048 18 310 6.4 19.3 0.00 0.00 0.00 57 1015.7
20260510144555 18 4 9.7 19.3 0.00 0.00 0.00 56 1015.6
20260510144049 18 3 6.4 14.5 0.00 0.00 0.00 59 1015.6
20260510143549 18 277 6.4 17.7 0.00 0.00 0.00 61 1015.6
20260510143054 18 263 9.7 20.9 0.00 0.00 0.00 60 1015.6
20260510142547 17 330 6.4 20.9 0.00 0.00 0.00 59 1015.6
20260510142045 17 300 8.0 19.3 0.00 0.00 0.00 61 1015.7
20260510141554 17 338 9.7 19.3 0.00 0.00 0.00 62 1015.7
20260510141048 17 347 4.8 14.5 0.00 0.00 0.00 63 1015.6
20260510140547 16 302 6.4 14.5 0.00 0.00 0.00 65 1015.6
20260510140057 16 305 6.4 14.5 0.00 0.00 0.00 64 1015.8
20260510135546 16 287 4.8 14.5 0.00 0.00 0.00 65 1015.7
20260510135048 16 297 3.2 11.3 0.00 0.00 0.00 67 1015.8
20260510134553 16 337 4.8 11.3 0.00 0.00 0.00 67 1015.8
20260510134049 15 303 4.8 11.3 0.00 0.00 0.00 69 1015.7
20260510133546 15 210 1.6 8.0 0.00 0.00 0.00 70 1015.7
20260510133053 15 207 0.0 6.4 0.00 0.00 0.00 71 1015.7
20260510132549 15 0 0.0 6.4 0.00 0.00 0.00 72 1015.6
20260510132048 14 0 1.6 8.0 0.00 0.00 0.00 73 1015.6
20260510131554 14 196 3.2 8.0 0.00 0.00 0.00 72 1015.4
20260510131048 14 212 4.8 8.0 0.00 0.00 0.00 73 1015.5
20260510130548 14 198 3.2 8.0 0.00 0.00 0.00 71 1015.3
20260510130053 14 203 3.2 8.0 0.00 0.00 0.00 72 1015.3
20260510125547 15 238 3.2 6.4 0.00 0.00 0.00 72 1015.4
20260510125049 14 323 3.2 6.4 0.00 0.00 0.00 73 1015.4
20260510124551 14 302 1.6 9.7 0.00 0.00 0.00 73 1015.1
20260510124047 13 258 3.2 9.7 0.00 0.00 0.00 74 1015.1
20260510123547 13 332 6.4 9.7 0.00 0.00 0.00 76 1015.1
20260510123052 13 237 3.2 9.7 0.00 0.00 0.00 79 1015.0
20260510122548 12 329 4.8 9.7 0.00 0.00 0.00 81 1014.8
20260510122048 12 342 1.6 4.8 0.00 0.00 0.00 82 1014.8
20260510121556 12 323 1.6 8.0 0.00 0.00 0.00 81 1014.7
20260510121050 12 0 1.6 8.0 0.00 0.00 0.00 78 1014.7
20260510120547 12 338 3.2 11.3 0.00 0.00 0.00 78 1014.5
20260510120053 12 335 4.8 12.9 0.00 0.00 0.00 78 1014.5
20260510115549 12 330 8.0 12.9 0.00 0.00 0.00 79 1014.5
20260510115047 12 340 6.4 12.9 0.00 0.00 0.00 79 1014.5
20260510114554 11 340 6.4 12.9 0.00 0.00 0.00 79 1014.4
20260510114048 11 342 4.8 11.3 0.00 0.00 0.00 80 1014.4
20260510113547 11 263 3.2 11.3 0.00 0.00 0.00 80 1014.3
20260510113057 11 323 8.0 11.3 0.00 0.00 0.00 81 1014.1
20260510112547 11 328 8.0 11.3 0.00 0.00 0.00 82 1014.0
20260510112051 11 338 6.4 11.3 0.00 0.00 0.00 82 1013.9
20260510111607 11 335 8.0 11.3 0.00 0.00 0.00 83 1013.7
20260510111047 11 330 6.4 11.3 0.00 0.00 0.00 83 1013.7
20260510110549 11 323 6.4 11.3 0.00 0.00 0.00 83 1013.8
20260510110059 10 309 4.8 9.7 0.00 0.00 0.00 85 1013.8
20260510105549 10 295 3.2 8.0 0.00 0.00 0.00 87 1013.6
20260510105049 10 265 3.2 6.4 0.00 0.00 0.00 87 1013.6
20260510104555 10 236 1.6 6.4 0.00 0.00 0.00 86 1013.5
20260510104048 10 242 3.2 6.4 0.00 0.00 0.00 86 1013.4
20260510103551 10 251 1.6 6.4 0.00 0.00 0.00 85 1013.4
20260510103055 10 256 1.6 6.4 0.00 0.00 0.00 84 1013.4
20260510102547 10 324 3.2 9.7 0.00 0.00 0.00 84 1013.2
20260510102047 10 315 3.2 9.7 0.00 0.00 0.00 84 1013.2
20260510101554 10 266 3.2 9.7 0.00 0.00 0.00 85 1013.3
20260510101050 10 273 4.8 9.7 0.00 0.00 0.00 85 1013.2
20260510100546 10 281 4.8 8.0 0.00 0.00 0.00 86 1013.1
20260510100055 10 278 4.8 8.0 0.00 0.00 0.00 87 1013.2
20260510095547 10 269 3.2 4.8 0.00 0.00 0.00 87 1013.0
20260510095046 10 247 1.6 6.4 0.00 0.00 0.00 85 1013.1
20260510094601 10 240 1.6 6.4 0.00 0.00 0.00 84 1013.0
20260510094047 10 240 3.2 8.0 0.00 0.00 0.00 83 1013.0
20260510093549 11 274 4.8 8.0 0.00 0.00 0.00 83 1013.1
20260510093110 11 286 3.2 8.0 0.00 0.00 0.00 84 1013.1
20260510092549 11 285 3.2 6.4 0.00 0.00 0.00 84 1013.0
20260510092047 11 279 1.6 8.0 0.00 0.00 0.00 84 1012.9
20260510091554 11 295 1.6 9.7 0.00 0.00 0.00 84 1013.0
20260510091047 11 354 4.8 9.7 0.00 0.00 0.00 83 1012.8
20260510090549 11 336 6.4 12.9 0.00 0.00 0.00 83 1012.7
20260510090117 11 305 6.4 12.9 0.00 0.00 0.00 83 1012.6
20260510085548 11 330 8.0 12.9 0.00 0.00 0.00 83 1012.5
20260510085048 11 338 9.7 12.9 0.00 0.00 0.00 83 1012.4
20260510084550 11 337 8.0 12.9 0.00 0.00 0.00 82 1012.5
20260510084048 11 322 8.0 12.9 0.00 0.00 0.00 82 1012.4
20260510083551 11 331 8.0 12.9 0.00 0.00 0.00 83 1012.4
20260510083109 11 315 6.4 9.7 0.00 0.00 0.00 83 1012.3
20260510082546 11 316 3.2 8.0 0.00 0.00 0.00 84 1012.4
20260510082048 10 323 1.6 8.0 0.00 0.00 0.00 86 1012.1
20260510081607 10 271 3.2 6.4 0.00 0.00 0.00 86 1012.3
20260510081048 10 228 3.2 6.4 0.00 0.00 0.00 84 1012.2
20260510080547 10 207 1.6 6.4 0.00 0.00 0.00 83 1012.1
20260510080056 10 214 3.2 6.4 0.00 0.00 0.00 82 1012.0
20260510075545 11 239 3.2 9.7 0.00 0.00 0.00 81 1011.9
20260510075048 11 288 3.2 9.7 0.00 0.00 0.00 83 1011.9
20260510074602 10 283 3.2 9.7 0.00 0.00 0.00 85 1011.7
20260510074049 10 294 3.2 8.0 0.00 0.00 0.00 85 1011.8
20260510073547 10 234 3.2 8.0 0.00 0.00 0.00 83 1011.9
20260510073052 10 211 3.2 6.4 0.00 0.00 0.00 82 1011.8
20260510072548 10 199 3.2 6.4 0.00 0.00 0.00 81 1011.9
20260510072047 11 233 1.6 6.4 0.00 0.00 0.00 79 1011.8
20260510071552 11 233 3.2 6.4 0.00 0.00 0.00 78 1011.9
20260510071046 12 219 1.6 6.4 0.00 0.00 0.00 78 1011.9
20260510070549 12 273 3.2 6.4 0.00 0.00 0.00 78 1011.9
20260510070054 12 261 3.2 6.4 0.00 0.00 0.00 79 1011.9
20260510065548 11 266 3.2 6.4 0.00 0.00 0.00 79 1011.8
20260510065047 11 237 3.2 8.0 0.00 0.00 0.00 79 1012.0
20260510064602 11 259 3.2 9.7 0.00 0.00 0.00 79 1011.9
20260510064047 11 268 4.8 9.7 0.00 0.00 0.00 78 1011.9
20260510063545 11 232 6.4 9.7 0.00 0.00 0.00 78 1011.9
20260510063056 11 224 4.8 8.0 0.00 0.00 0.00 78 1012.1
20260510062546 11 216 3.2 6.4 0.00 0.00 0.00 77 1012.0
20260510062048 11 218 3.2 6.4 0.00 0.00 0.00 77 1012.1
20260510061557 11 213 3.2 6.4 0.00 0.00 0.00 77 1012.1
20260510061048 12 205 3.2 6.4 0.00 0.00 0.00 77 1012.0
20260510060546 12 203 3.2 6.4 0.00 0.00 0.00 76 1012.1
20260510060054 12 205 3.2 6.4 0.00 0.00 0.00 76 1012.1
20260510055547 12 210 3.2 8.0 0.00 0.00 0.00 76 1012.1
20260510055048 12 194 3.2 8.0 0.00 0.00 0.00 75 1012.1
20260510054549 12 191 3.2 8.0 0.00 0.00 0.00 75 1012.2
20260510054048 12 187 3.2 8.0 0.00 0.00 0.00 75 1012.1
20260510053548 12 195 3.2 8.0 0.00 0.00 0.00 75 1012.2
20260510053050 12 212 3.2 8.0 0.00 0.00 0.00 75 1012.2
20260510052547 12 203 3.2 8.0 0.00 0.00 0.00 75 1012.1
20260510052046 12 212 3.2 8.0 0.00 0.00 0.00 75 1012.1
20260510051551 12 209 4.8 8.0 0.00 0.00 0.00 75 1012.2
20260510051050 12 229 4.8 8.0 0.00 0.00 0.00 74 1012.2
20260510050545 12 227 4.8 8.0 0.00 0.00 0.00 74 1012.1
20260510050054 12 246 3.2 8.0 0.00 0.00 0.00 73 1012.0
20260510045550 12 255 3.2 6.4 0.00 0.00 0.00 73 1011.9
20260510045049 12 268 1.6 8.0 0.00 0.00 0.00 73 1011.8
20260510044619 12 271 3.2 8.0 0.00 0.00 0.00 73 1011.9
20260510044048 12 236 3.2 8.0 0.00 0.00 0.00 72 1012.1
20260510043548 13 238 3.2 8.0 0.00 0.00 0.00 72 1012.1
20260510043058 13 236 4.8 8.0 0.00 0.00 0.00 72 1012.2
20260510042550 13 229 3.2 9.7 0.00 0.00 0.00 72 1012.3
20260510042051 13 224 4.8 9.7 0.00 0.00 0.00 72 1012.2
20260510041555 13 208 4.8 9.7 0.00 0.00 0.00 72 1012.2
20260510041050 12 201 4.8 9.7 0.00 0.00 0.00 73 1012.1
20260510040548 12 198 4.8 9.7 0.00 0.00 0.00 73 1012.0
20260510040053 12 178 6.4 9.7 0.00 0.00 0.00 73 1012.2
20260510035548 13 175 4.8 8.0 0.00 0.00 0.00 72 1012.2
20260510035046 13 165 4.8 8.0 0.00 0.00 0.00 72 1012.1
20260510034552 13 177 4.8 8.0 0.00 0.00 0.00 70 1012.0
20260510034046 14 186 3.2 8.0 0.00 0.00 0.00 68 1011.9
20260510033545 14 245 1.6 12.9 0.00 0.00 0.00 67 1012.0
20260510033059 15 253 4.8 12.9 0.00 0.00 0.00 67 1012.0
20260510032545 15 268 6.4 12.9 0.00 0.00 0.00 66 1012.0
20260510032045 15 237 6.4 12.9 0.00 0.00 0.00 66 1012.0
20260510031558 15 254 6.4 12.9 0.00 0.00 0.00 66 1011.9
20260510031051 15 259 6.4 16.1 0.00 0.00 0.00 66 1011.9
20260510030544 15 276 8.0 16.1 0.00 0.00 0.00 66 1011.8
20260510030058 15 243 6.4 12.9 0.00 0.00 0.00 66 1011.7
20260510025547 15 279 6.4 12.9 0.00 0.00 0.00 66 1011.6
20260510025047 15 283 6.4 12.9 0.00 0.00 0.00 66 1011.7
20260510024557 15 271 4.8 11.3 0.00 0.00 0.00 66 1011.6
20260510024047 15 251 4.8 11.3 0.00 0.00 0.00 65 1011.8
20260510023550 15 278 4.8 9.7 0.00 0.00 0.00 65 1011.7
20260510023104 15 253 4.8 9.7 0.00 0.00 0.00 65 1011.8
20260510022550 15 248 3.2 9.7 0.00 0.00 0.00 65 1011.6
20260510022050 15 240 3.2 12.9 0.00 0.00 0.00 64 1011.5
20260510021557 15 236 4.8 12.9 0.00 0.00 0.00 64 1011.5
20260510021049 15 294 4.8 11.3 0.00 0.00 0.00 65 1011.5
20260510020550 15 275 4.8 9.7 0.00 0.00 0.00 65 1011.5
20260510020100 15 243 3.2 8.0 0.00 0.00 0.00 65 1011.5
20260510015550 15 221 3.2 8.0 0.00 0.00 0.00 64 1011.6
20260510015050 15 232 4.8 8.0 0.00 0.00 0.00 63 1011.4
20260510014554 15 229 3.2 8.0 0.00 0.00 0.00 63 1011.4
20260510014049 15 246 3.2 9.7 0.00 0.00 0.00 63 1011.3
20260510013550 15 249 3.2 9.7 0.00 0.00 0.00 63 1011.1
20260510013058 15 264 4.8 9.7 0.00 0.00 0.00 63 1011.1
20260510012549 15 259 4.8 9.7 0.00 0.00 0.00 63 1010.8
20260510012049 15 210 4.8 8.0 0.00 0.00 0.00 63 1010.9
20260510011559 15 205 3.2 4.8 0.00 0.00 0.00 63 1010.8
20260510011049 15 188 1.6 6.4 0.00 0.00 0.00 62 1010.7
20260510010546 15 233 1.6 8.0 0.00 0.00 0.00 62 1010.6
20260510010131 15 241 3.2 9.7 0.00 0.00 0.00 62 1010.6
20260510005550 16 323 3.2 9.7 0.00 0.00 0.00 62 1010.3
20260510005049 16 323 4.8 9.7 0.00 0.00 0.00 61 1010.2
20260510004555 16 323 1.6 8.0 0.00 0.00 0.00 61 1010.2
20260510004049 16 323 4.8 8.0 0.00 0.00 0.00 62 1010.0
20260510003550 16 311 3.2 8.0 0.00 0.00 0.00 62 1010.0
20260510003057 16 323 4.8 8.0 0.00 0.00 0.00 63 1009.9
20260510002549 16 326 4.8 8.0 0.00 0.00 0.00 62 1009.9
20260510002049 16 330 3.2 9.7 0.00 0.00 0.00 62 1010.0
20260510001605 16 326 4.8 9.7 0.00 0.00 0.00 62 1010.0
20260510001049 16 4 4.8 8.0 0.00 0.00 0.00 61 1010.0
20260510000549 16 323 4.8 8.0 0.00 0.00 0.00 61 1010.0
20260510000057 16 329 3.2 6.4 0.00 0.00 0.00 60 1010.1
20260509235549 16 307 1.6 4.8 0.00 0.00 0.00 60 1010.0
20260509235049 16 318 3.2 6.4 0.00 0.00 0.00 59 1010.1
20260509234644 17 295 1.6 6.4 0.00 0.00 0.00 59 1010.0
20260509234050 17 0 1.6 8.0 0.00 0.00 0.00 59 1010.0
20260509233548 17 252 3.2 8.0 0.00 0.00 0.00 59 1010.1
20260509233055 17 261 3.2 8.0 0.00 0.00 0.00 59 1010.0
20260509232550 17 250 1.6 6.4 0.00 0.00 0.00 59 1009.9
20260509232049 17 293 3.2 8.0 0.00 0.00 0.00 59 1010.1
20260509231554 17 304 1.6 9.7 0.00 0.00 0.00 58 1009.9
20260509231048 17 289 3.2 9.7 0.00 0.00 0.00 57 1009.8
20260509230546 18 322 4.8 9.7 0.00 0.00 0.00 57 1009.7
20260509230058 18 315 4.8 12.9 0.00 0.00 0.00 57 1010.0
20260509225550 18 331 6.4 16.1 0.00 0.00 0.00 57 1009.8
20260509225049 18 328 6.4 16.1 0.00 0.00 0.00 55 1009.8
20260509224555 18 324 6.4 17.7 0.00 0.00 0.00 55 1009.8
20260509224051 18 341 8.0 17.7 0.00 0.00 0.00 55 1009.9
20260509223549 18 325 6.4 12.9 0.00 0.00 0.00 55 1009.8
20260509223056 18 321 6.4 12.9 0.00 0.00 0.00 55 1009.8
20260509222552 18 333 6.4 19.3 0.00 0.00 0.00 54 1009.8
20260509222049 18 307 6.4 19.3 0.00 0.00 0.00 53 1009.8
20260509221555 19 338 11.3 24.1 0.00 0.00 0.00 52 1009.7
20260509221049 19 288 8.0 24.1 0.00 0.00 0.00 52 1009.8
20260509220547 18 249 8.0 22.5 0.00 0.00 0.00 53 1009.9
20260509220109 18 323 8.0 22.5 0.00 0.00 0.00 52 1009.9
20260509215549 19 240 11.3 20.9 0.00 0.00 0.00 51 1009.8
20260509215048 20 286 6.4 17.7 0.00 0.00 0.00 49 1009.7
20260509214559 20 339 8.0 17.7 0.00 0.00 0.00 50 1009.8
20260509214049 19 314 9.7 29.0 0.00 0.00 0.00 50 1009.7
20260509213550 20 334 9.7 29.0 0.00 0.00 0.00 51 1009.6
20260509213058 20 335 12.9 29.0 0.00 0.00 0.00 49 1009.4
20260509212548 20 347 11.3 27.4 0.00 0.00 0.00 50 1009.5
20260509212047 20 303 14.5 33.8 0.00 0.00 0.00 50 1009.4
20260509211555 20 311 11.3 33.8 0.00 0.00 0.00 50 1009.3
20260509211053 20 335 20.9 33.8 0.00 0.00 0.00 50 1009.3
20260509210550 20 264 12.9 25.7 0.00 0.00 0.00 50 1009.1
20260509210057 19 311 14.5 25.7 0.00 0.00 0.00 49 1008.9
20260509205549 19 333 9.7 24.1 0.00 0.00 0.00 53 1008.8
20260509205051 18 324 16.1 29.0 0.00 0.00 0.00 52 1008.7
20260509204556 18 342 11.3 30.6 0.00 0.00 0.00 51 1008.8
20260509204049 18 337 16.1 30.6 0.00 0.00 0.00 51 1008.7
20260509203549 19 304 17.7 30.6 0.00 0.00 0.00 50 1008.7
20260509203141 19 285 16.1 27.4 0.00 0.00 0.00 51 1008.8
20260509202549 19 301 14.5 30.6 0.00 0.00 0.00 51 1008.8
20260509202052 19 335 17.7 30.6 0.00 0.00 0.00 50 1008.8
20260509201604 20 345 16.1 25.7 0.00 0.00 0.00 51 1008.7
20260509201048 19 319 12.9 24.1 0.00 0.00 0.00 50 1008.6
20260509200549 19 308 11.3 24.1 0.00 0.00 0.00 51 1008.8
20260509195548 19 326 11.3 22.5 0.00 0.00 0.00 50 1008.8
20260509195050 20 310 12.9 20.9 0.00 0.00 0.00 51 1008.7
20260509194555 19 219 11.3 20.9 0.00 0.00 0.00 52 1008.8
20260509194047 19 255 12.9 24.1 0.00 0.00 0.00 52 1008.8
20260509193549 19 345 12.9 24.1 0.00 0.00 0.00 52 1008.8
20260509193111 19 330 11.3 25.7 0.00 0.00 0.00 52 1008.7
20260509192550 19 339 9.7 27.4 0.00 0.00 0.00 54 1008.8
20260509192049 20 334 11.3 27.4 0.00 0.00 0.00 55 1008.8
20260509191612 20 341 16.1 27.4 0.00 0.00 0.00 53 1008.8
20260509191052 19 324 11.3 20.9 0.00 0.00 0.00 53 1008.7
20260509190548 20 347 11.3 20.9 0.00 0.00 0.00 52 1008.6
20260509190054 20 338 8.0 19.3 0.00 0.00 0.00 57 1008.5
20260509185550 19 275 6.4 19.3 0.00 0.00 0.00 54 1008.6
20260509185049 20 1 8.0 17.7 0.00 0.00 0.00 53 1008.7
20260509184552 19 341 8.0 17.7 0.00 0.00 0.00 56 1008.8